THOR BURNER 2 R/B, 2985

Orbit data source: Space-Track

THOR BURNER 2 R/B, 2985 is space debris in SSO originally from a launch on Wed, 11 Oct 1967 UTC launched from the Air Force Western Test Range (AFWTR). Debris objects in space refer to the collection of defunct objects orbiting the Earth. Examples of debris include non-operational satellites, rocket bodies, and fragments generated from explosions, collisions, or faulty payload assembly.

Loading next visibility...
Identifier
2985, 1967-096B
Orbit
SSO
Country
Flag of USUS
Related business
Manufacturer
Thiokol/TE
Mission
Spacecraft
Bus & Motor
STAR 37, Unknown motor
Mass
154 kg wet, 154 kg dry
Launch date (UTC)
1967-10-11 (59 years ago)
Launch vehicle
Unknown
Launch site
Air Force Western Test Range (AFWTR)
Object type
Payload
Rocket body
Debris
Shape & HBR
Unknown
Radar Cross Section
Large (>1 m²)

Expand to show TLE details & history
Last TLE update: 14 hours ago

TLE from 14 hours ago
0 THOR BURNER 2 R/B
1  2985U 67096B   26199.70087160  .00000214  00000-0  45080-4 0  9996
2  2985  99.1578 238.9303 0081596 329.8881  29.7644 14.69583681 97820
Epoch: 2026-07-18T16:49Z
TLE epoch observation values (Epoch: 2026-07-18T16:49:15.306Z)
Latitude
0.00007°
Longitude
50.10666°
Altitude
615.602 km
Speed
7.578 km/s
True Right ascension
15h 55m 43s
True Declination
0° 00' 00"
Sunlit
Object was in full shadow at epoch
Visualization orbit readout
Latitude
Unknown
Longitude
Unknown
Altitude
Unknown
Speed
Unknown
Apparent Right ascension
Unknown
Apparent Declination
Unknown
Sunlit
N/A
Visualization observer readout
Local Sidereal Time
19:20:05
Azimuth
Unknown
Elevation
Unknown
Doppler factor
Unknown
Orbital elements
Apogee altitude
716.937 km
Perigee altitude
602.088 km
Semi-major axis
7,037.649 km
Eccentricity
0.00816
Inclination
99.1578°
RAAN
238.9303°
Arg. of periapsis
329.8881°
True anomaly
30.23272°
Mean anomaly
29.7644°
Eccentric anomaly
29.99814°
Mean motion
3.67622 °/min
Orbital period
97.93 mins
BSTAR
0.00004508
Loading maneuver chart data...
Computing Atmospheric mass density...
Loading historical data...
Loading historical data...
Loading historical data...
Loading historical data...
Loading historical data...
Loading historical data...
Loading historical data...
Other satellites on launch #96 in the year 1967 (1967-10-11 UTC)

Documentation

Showing up to 5 results
|